Time,TemperatureF,DewpointF,PressureIn,WindDirection,WindDirectionDegrees,WindSpeedMPH,WindSpeedGustMPH,Humidity,HourlyPrecipIn,Conditions,Clouds,dailyrainin,SoftwareType,DateUTC
2013-05-01 00:00:00,44.2,41.5,29.84,North,0,0.0,0.0,90,0.00,,,0.00,LWC V2.00 B2112,2013-05-01 07:00:00,
2013-05-01 00:10:00,44.2,41.5,29.84,North,0,0.0,0.0,90,0.00,,,0.00,LWC V2.00 B2112,2013-05-01 07:10:00,
2013-05-01 00:20:00,44.2,41.5,29.84,North,0,0.0,0.0,90,0.00,,,0.00,LWC V2.00 B2112,2013-05-01 07:20:00,
2013-05-01 00:30:00,43.8,41.3,29.84,North,0,0.0,0.0,91,0.00,,,0.00,LWC V2.00 B2112,2013-05-01 07:30:00,
2013-05-01 00:40:00,43.8,41.3,29.84,North,0,0.0,0.0,91,0.00,,,0.00,LWC V2.00 B2112,2013-05-01 07:40:00,
2013-05-01 00:50:00,43.8,41.3,29.84,North,0,0.0,0.0,91,0.00,,,0.00,LWC V2.00 B2112,2013-05-01 07:50:00,
2013-05-01 01:00:00,43.6,41.1,29.85,North,0,0.0,0.0,91,0.00,,,0.00,LWC V2.00 B2112,2013-05-01 08:00:00,
2013-05-01 01:10:00,43.6,41.1,29.85,North,0,0.0,0.0,91,0.00,,,0.00,LWC V2.00 B2112,2013-05-01 08:10:00,
2013-05-01 01:20:00,43.6,41.1,29.85,North,0,0.0,0.0,91,0.00,,,0.00,LWC V2.00 B2112,2013-05-01 08:20:00,
2013-05-01 01:30:00,43.2,40.7,29.85,North,0,0.0,0.0,91,0.00,,,0.00,LWC V2.00 B2112,2013-05-01 08:30:00,
2013-05-01 01:40:00,43.2,40.7,29.85,North,0,0.0,0.0,91,0.00,,,0.00,LWC V2.00 B2112,2013-05-01 08:40:00,
2013-05-01 01:50:00,43.2,40.7,29.85,North,0,0.0,0.0,91,0.00,,,0.00,LWC V2.00 B2112,2013-05-01 08:50:00,
2013-05-01 02:00:00,43.6,41.4,29.84,SSW,202,0.0,2.0,92,0.00,,,0.00,LWC V2.00 B2112,2013-05-01 09:00:00,
2013-05-01 02:10:00,43.6,41.4,29.84,SSW,202,0.0,2.0,92,0.00,,,0.00,LWC V2.00 B2112,2013-05-01 09:10:00,
2013-05-01 02:20:00,43.6,41.4,29.84,SSW,202,0.0,2.0,92,0.00,,,0.00,LWC V2.00 B2112,2013-05-01 09:20:00,
2013-05-01 02:30:00,44.1,41.9,29.85,SSW,202,0.0,2.0,92,0.00,,,0.00,LWC V2.00 B2112,2013-05-01 09:30:00,
2013-05-01 02:40:00,44.1,41.9,29.85,SSW,202,0.0,2.0,92,0.00,,,0.00,LWC V2.00 B2112,2013-05-01 09:40:00,
2013-05-01 02:50:00,44.1,41.9,29.85,SSW,202,0.0,2.0,92,0.00,,,0.00,LWC V2.00 B2112,2013-05-01 09:50:00,
2013-05-01 03:00:00,43.5,41.3,29.84,SSE,158,0.0,1.0,92,0.00,,,0.00,LWC V2.00 B2112,2013-05-01 10:00:00,
2013-05-01 03:10:00,43.5,41.3,29.84,SSE,158,0.0,1.0,92,0.00,,,0.00,LWC V2.00 B2112,2013-05-01 10:10:00,
2013-05-01 03:20:00,43.5,41.3,29.84,SSE,158,0.0,1.0,92,0.00,,,0.00,LWC V2.00 B2112,2013-05-01 10:20:00,
2013-05-01 03:30:00,42.9,40.7,29.85,East,90,0.0,2.0,92,0.00,,,0.00,LWC V2.00 B2112,2013-05-01 10:30:00,
2013-05-01 03:40:00,42.9,40.7,29.85,East,90,0.0,2.0,92,0.00,,,0.00,LWC V2.00 B2112,2013-05-01 10:40:00,
2013-05-01 03:50:00,42.9,40.7,29.85,East,90,0.0,2.0,92,0.00,,,0.00,LWC V2.00 B2112,2013-05-01 10:50:00,
2013-05-01 04:00:00,42.9,40.7,29.85,SSE,158,0.0,1.0,92,0.00,,,0.00,LWC V2.00 B2112,2013-05-01 11:00:00,
2013-05-01 04:10:00,42.9,40.7,29.85,SSE,158,0.0,1.0,92,0.00,,,0.00,LWC V2.00 B2112,2013-05-01 11:10:00,
2013-05-01 04:20:00,42.9,40.7,29.85,SSE,158,0.0,1.0,92,0.00,,,0.00,LWC V2.00 B2112,2013-05-01 11:20:00,
2013-05-01 04:30:00,42.2,40.0,29.86,SE,135,0.0,1.0,92,0.00,,,0.00,LWC V2.00 B2112,2013-05-01 11:30:00,
2013-05-01 04:40:00,42.2,40.0,29.86,SE,135,0.0,1.0,92,0.00,,,0.00,LWC V2.00 B2112,2013-05-01 11:40:00,
2013-05-01 04:50:00,42.2,40.0,29.86,SE,135,0.0,1.0,92,0.00,,,0.00,LWC V2.00 B2112,2013-05-01 11:50:00,
2013-05-01 05:00:00,41.3,39.1,29.87,North,0,0.0,0.0,92,0.00,,,0.00,LWC V2.00 B2112,2013-05-01 12:00:00,
2013-05-01 05:10:00,41.3,39.1,29.87,North,0,0.0,0.0,92,0.00,,,0.00,LWC V2.00 B2112,2013-05-01 12:10:00,
2013-05-01 05:20:00,41.3,39.1,29.87,North,0,0.0,0.0,92,0.00,,,0.00,LWC V2.00 B2112,2013-05-01 12:20:00,
2013-05-01 05:30:00,40.2,38.1,29.88,North,0,0.0,0.0,92,0.00,,,0.00,LWC V2.00 B2112,2013-05-01 12:30:00,
2013-05-01 05:40:00,40.2,38.1,29.88,North,0,0.0,0.0,92,0.00,,,0.00,LWC V2.00 B2112,2013-05-01 12:40:00,
2013-05-01 05:50:00,40.2,38.1,29.88,North,0,0.0,0.0,92,0.00,,,0.00,LWC V2.00 B2112,2013-05-01 12:50:00,
2013-05-01 06:00:00,40.2,38.1,29.88,North,0,0.0,0.0,92,0.00,,,0.00,LWC V2.00 B2112,2013-05-01 13:00:00,
2013-05-01 06:10:00,39.4,37.3,29.89,North,0,0.0,0.0,92,0.00,,,0.00,LWC V2.00 B2112,2013-05-01 13:10:00,
2013-05-01 06:20:00,39.4,37.3,29.89,North,0,0.0,0.0,92,0.00,,,0.00,LWC V2.00 B2112,2013-05-01 13:20:00,
2013-05-01 06:34:00,38.8,37.0,29.91,SSE,153,0.0,0.0,93,0.00,,,0.00,LWC V2.00 B2112,2013-05-01 13:34:00,
2013-05-01 06:39:00,38.8,37.0,29.91,SSE,154,0.0,0.0,93,0.00,,,0.00,LWC V2.00 B2112,2013-05-01 13:39:00,
2013-05-01 06:44:00,38.9,37.1,29.91,SSE,153,0.0,0.0,93,0.00,,,0.00,LWC V2.00 B2112,2013-05-01 13:44:00,
2013-05-01 06:49:00,39.1,37.2,29.92,SSE,153,0.0,0.0,93,0.00,,,0.00,LWC V2.00 B2112,2013-05-01 13:49:00,
2013-05-01 06:54:00,39.8,37.9,29.92,SSE,153,0.0,0.0,93,0.00,,,0.00,LWC V2.00 B2112,2013-05-01 13:54:00,
2013-05-01 06:59:00,41.0,39.1,29.92,SSE,153,0.0,0.0,93,0.00,,,0.00,LWC V2.00 B2112,2013-05-01 13:59:00,
2013-05-01 07:04:00,42.6,40.7,29.92,SSE,153,0.0,0.0,93,0.00,,,0.00,LWC V2.00 B2112,2013-05-01 14:04:00,
2013-05-01 07:09:00,42.9,40.7,29.92,SSE,153,0.0,0.0,92,0.00,,,0.00,LWC V2.00 B2112,2013-05-01 14:09:00,
2013-05-01 07:14:00,43.5,41.3,29.92,SSE,153,0.0,0.0,92,0.00,,,0.00,LWC V2.00 B2112,2013-05-01 14:14:00,
2013-05-01 07:19:00,44.7,42.5,29.92,SSE,153,0.0,0.0,92,0.00,,,0.00,LWC V2.00 B2112,2013-05-01 14:19:00,
2013-05-01 07:24:00,45.9,43.7,29.92,SSE,153,0.0,0.0,92,0.00,,,0.00,LWC V2.00 B2112,2013-05-01 14:24:00,
2013-05-01 07:29:00,47.0,44.8,29.93,SSE,153,0.0,0.0,92,0.00,,,0.00,LWC V2.00 B2112,2013-05-01 14:29:00,
2013-05-01 07:34:00,48.5,46.3,29.93,SSE,153,0.0,0.0,92,0.00,,,0.00,LWC V2.00 B2112,2013-05-01 14:34:00,
2013-05-01 07:39:00,49.6,47.4,29.93,SSE,153,0.0,0.0,92,0.00,,,0.00,LWC V2.00 B2112,2013-05-01 14:39:00,
2013-05-01 07:44:00,50.5,48.0,29.93,SSE,153,0.0,0.0,91,0.00,,,0.00,LWC V2.00 B2112,2013-05-01 14:44:00,
2013-05-01 07:49:00,51.1,48.3,29.93,SSE,153,0.0,0.0,90,0.00,,,0.00,LWC V2.00 B2112,2013-05-01 14:49:00,
2013-05-01 07:54:00,51.8,48.7,29.94,SSE,153,0.0,0.0,89,0.00,,,0.00,LWC V2.00 B2112,2013-05-01 14:54:00,
2013-05-01 07:59:00,52.4,49.0,29.94,SSE,153,0.0,0.0,88,0.00,,,0.00,LWC V2.00 B2112,2013-05-01 14:59:00,
2013-05-01 08:04:00,53.6,49.5,29.94,South,174,0.0,0.0,86,0.00,,,0.00,LWC V2.00 B2112,2013-05-01 15:04:00,
2013-05-01 08:09:00,54.2,49.1,29.94,South,174,0.0,0.0,83,0.00,,,0.00,LWC V2.00 B2112,2013-05-01 15:09:00,
2013-05-01 08:14:00,54.7,48.7,29.94,South,173,0.0,0.0,80,0.00,,,0.00,LWC V2.00 B2112,2013-05-01 15:14:00,
2013-05-01 08:19:00,55.2,48.5,29.94,South,173,0.0,0.0,78,0.00,,,0.00,LWC V2.00 B2112,2013-05-01 15:19:00,
2013-05-01 08:24:00,55.9,48.8,29.94,SE,128,0.0,0.0,77,0.00,,,0.00,LWC V2.00 B2112,2013-05-01 15:24:00,
2013-05-01 08:29:00,56.6,49.5,29.94,SE,128,0.0,0.0,77,0.00,,,0.00,LWC V2.00 B2112,2013-05-01 15:29:00,
2013-05-01 08:34:00,57.4,49.9,29.94,SE,128,0.0,0.0,76,0.00,,,0.00,LWC V2.00 B2112,2013-05-01 15:34:00,
2013-05-01 08:39:00,58.4,50.9,29.94,SE,128,0.0,0.0,76,0.00,,,0.00,LWC V2.00 B2112,2013-05-01 15:39:00,
2013-05-01 08:44:00,59.3,50.6,29.94,ESE,122,0.0,0.0,73,0.00,,,0.00,LWC V2.00 B2112,2013-05-01 15:44:00,
2013-05-01 08:49:00,60.2,50.4,29.95,ESE,123,0.0,0.0,70,0.00,,,0.00,LWC V2.00 B2112,2013-05-01 15:49:00,
2013-05-01 08:54:00,60.8,51.0,29.95,ESE,123,0.0,0.0,70,0.00,,,0.00,LWC V2.00 B2112,2013-05-01 15:54:00,
2013-05-01 08:59:00,61.6,52.1,29.95,SE,131,0.0,0.0,71,0.00,,,0.00,LWC V2.00 B2112,2013-05-01 15:59:00,
2013-05-01 09:04:00,62.0,50.9,29.95,SE,131,0.0,0.0,67,0.00,,,0.00,LWC V2.00 B2112,2013-05-01 16:04:00,
2013-05-01 09:09:00,63.0,51.9,29.95,ESE,121,0.0,0.0,67,0.00,,,0.00,LWC V2.00 B2112,2013-05-01 16:09:00,
2013-05-01 09:14:00,64.1,51.7,29.95,ESE,122,0.0,0.0,64,0.00,,,0.00,LWC V2.00 B2112,2013-05-01 16:14:00,
2013-05-01 09:19:00,64.4,51.1,29.95,SE,136,0.0,1.0,62,0.00,,,0.00,LWC V2.00 B2112,2013-05-01 16:19:00,
2013-05-01 09:24:00,64.8,51.0,29.95,SE,136,0.0,0.0,61,0.00,,,0.00,LWC V2.00 B2112,2013-05-01 16:24:00,
2013-05-01 09:29:00,65.5,51.2,29.95,SE,135,0.0,0.0,60,0.00,,,0.00,LWC V2.00 B2112,2013-05-01 16:29:00,
2013-05-01 09:34:00,66.0,51.7,29.95,SE,136,0.0,0.0,60,0.00,,,0.00,LWC V2.00 B2112,2013-05-01 16:34:00,
2013-05-01 09:39:00,66.4,51.2,29.95,SSE,150,0.0,0.0,58,0.00,,,0.00,LWC V2.00 B2112,2013-05-01 16:39:00,
2013-05-01 09:44:00,67.1,48.9,29.95,ESE,123,0.0,1.0,52,0.00,,,0.00,LWC V2.00 B2112,2013-05-01 16:44:00,
2013-05-01 09:49:00,68.1,51.3,29.96,SE,141,0.0,0.0,55,0.00,,,0.00,LWC V2.00 B2112,2013-05-01 16:49:00,
2013-05-01 09:54:00,68.3,51.5,29.96,SE,141,0.0,0.0,55,0.00,,,0.00,LWC V2.00 B2112,2013-05-01 16:54:00,
2013-05-01 09:59:00,68.2,50.9,29.96,SE,141,0.0,0.0,54,0.00,,,0.00,LWC V2.00 B2112,2013-05-01 16:59:00,
2013-05-01 10:04:00,69.0,51.1,29.96,SE,141,0.0,0.0,53,0.00,,,0.00,LWC V2.00 B2112,2013-05-01 17:04:00,
2013-05-01 10:09:00,70.1,53.7,29.96,SE,141,0.0,0.0,56,0.00,,,0.00,LWC V2.00 B2112,2013-05-01 17:09:00,
2013-05-01 10:14:00,70.5,52.0,29.96,SE,141,0.0,0.0,52,0.00,,,0.00,LWC V2.00 B2112,2013-05-01 17:14:00,
2013-05-01 10:19:00,71.2,48.8,29.96,ESE,109,1.0,1.0,45,0.00,,,0.00,LWC V2.00 B2112,2013-05-01 17:19:00,
2013-05-01 10:24:00,72.4,51.0,29.96,SE,143,0.0,0.0,47,0.00,,,0.00,LWC V2.00 B2112,2013-05-01 17:24:00,
2013-05-01 10:29:00,73.0,46.6,29.96,SE,129,0.0,1.0,39,0.00,,,0.00,LWC V2.00 B2112,2013-05-01 17:29:00,
2013-05-01 10:34:00,74.0,48.1,29.96,SE,131,0.0,0.0,40,0.00,,,0.00,LWC V2.00 B2112,2013-05-01 17:34:00,
2013-05-01 10:39:00,75.1,49.1,29.96,SE,131,0.0,0.0,40,0.00,,,0.00,LWC V2.00 B2112,2013-05-01 17:39:00,
2013-05-01 10:44:00,76.0,44.8,29.96,SE,131,0.0,0.0,33,0.00,,,0.00,LWC V2.00 B2112,2013-05-01 17:44:00,
2013-05-01 10:49:00,75.9,43.1,29.96,SE,131,0.0,0.0,31,0.00,,,0.00,LWC V2.00 B2112,2013-05-01 17:49:00,
2013-05-01 10:54:00,76.8,40.3,29.97,WNW,297,0.0,1.0,27,0.00,,,0.00,LWC V2.00 B2112,2013-05-01 17:54:00,
2013-05-01 10:59:00,78.0,42.2,29.96,WNW,296,0.0,1.0,28,0.00,,,0.00,LWC V2.00 B2112,2013-05-01 17:59:00,
2013-05-01 11:04:00,79.0,38.0,29.97,WNW,300,1.0,1.0,23,0.00,,,0.00,LWC V2.00 B2112,2013-05-01 18:04:00,
2013-05-01 11:09:00,79.4,42.5,29.97,ESE,109,0.0,1.0,27,0.00,,,0.00,LWC V2.00 B2112,2013-05-01 18:09:00,
2013-05-01 11:14:00,79.6,30.9,29.97,SE,139,0.0,1.0,17,0.00,,,0.00,LWC V2.00 B2112,2013-05-01 18:14:00,
2013-05-01 11:19:00,79.2,32.0,29.97,SSE,155,0.0,2.0,18,0.00,,,0.00,LWC V2.00 B2112,2013-05-01 18:19:00,
2013-05-01 11:24:00,79.2,33.4,29.97,SSE,152,1.0,2.0,19,0.00,,,0.00,LWC V2.00 B2112,2013-05-01 18:24:00,
2013-05-01 11:29:00,79.3,39.4,29.97,SSE,152,0.0,0.0,24,0.00,,,0.00,LWC V2.00 B2112,2013-05-01 18:29:00,
2013-05-01 11:34:00,79.6,39.6,29.97,SSE,150,1.0,1.0,24,0.00,,,0.00,LWC V2.00 B2112,2013-05-01 18:34:00,
2013-05-01 11:39:00,80.0,35.3,29.97,SE,131,0.0,2.0,20,0.00,,,0.00,LWC V2.00 B2112,2013-05-01 18:39:00,
2013-05-01 11:44:00,81.1,33.6,29.97,West,265,0.0,2.0,18,0.00,,,0.00,LWC V2.00 B2112,2013-05-01 18:44:00,
2013-05-01 11:49:00,82.1,31.4,29.97,SW,217,0.0,1.0,16,0.00,,,0.00,LWC V2.00 B2112,2013-05-01 18:49:00,
2013-05-01 11:54:00,82.7,34.9,29.97,NNW,346,0.0,0.0,18,0.00,,,0.00,LWC V2.00 B2112,2013-05-01 18:54:00,
2013-05-01 11:59:00,82.9,33.6,29.97,East,91,0.0,0.0,17,0.00,,,0.00,LWC V2.00 B2112,2013-05-01 18:59:00,
2013-05-01 12:04:00,83.2,37.9,29.97,ESE,113,0.0,2.0,20,0.00,,,0.00,LWC V2.00 B2112,2013-05-01 19:04:00,
2013-05-01 12:09:00,82.7,33.4,29.97,ESE,116,0.0,1.0,17,0.00,,,0.00,LWC V2.00 B2112,2013-05-01 19:09:00,
2013-05-01 12:14:00,81.7,36.7,29.97,East,85,0.0,1.0,20,0.00,,,0.00,LWC V2.00 B2112,2013-05-01 19:14:00,
2013-05-01 12:19:00,81.6,37.9,29.97,SW,226,0.0,1.0,21,0.00,,,0.00,LWC V2.00 B2112,2013-05-01 19:19:00,
2013-05-01 12:24:00,81.3,39.9,29.97,ESE,107,3.0,4.0,23,0.00,,,0.00,LWC V2.00 B2112,2013-05-01 19:24:00,
2013-05-01 12:29:00,80.5,37.0,29.97,SW,233,3.0,3.0,21,0.00,,,0.00,LWC V2.00 B2112,2013-05-01 19:29:00,
2013-05-01 12:34:00,81.2,37.5,29.97,ENE,75,0.0,4.0,21,0.00,,,0.00,LWC V2.00 B2112,2013-05-01 19:34:00,
2013-05-01 12:39:00,80.3,42.3,29.97,ENE,76,2.0,3.0,26,0.00,,,0.00,LWC V2.00 B2112,2013-05-01 19:39:00,
2013-05-01 12:44:00,79.9,41.9,29.97,East,79,3.0,7.0,26,0.00,,,0.00,LWC V2.00 B2112,2013-05-01 19:44:00,
2013-05-01 12:49:00,80.6,43.5,29.97,SSW,200,1.0,2.0,27,0.00,,,0.00,LWC V2.00 B2112,2013-05-01 19:49:00,
2013-05-01 12:54:00,80.8,41.7,29.97,NE,49,0.0,3.0,25,0.00,,,0.00,LWC V2.00 B2112,2013-05-01 19:54:00,
2013-05-01 12:59:00,81.0,42.9,29.97,SE,127,1.0,2.0,26,0.00,,,0.00,LWC V2.00 B2112,2013-05-01 19:59:00,
2013-05-01 13:04:00,81.7,39.1,29.97,ENE,68,2.0,3.0,22,0.00,,,0.00,LWC V2.00 B2112,2013-05-01 20:04:00,
2013-05-01 13:09:00,80.7,40.5,29.97,East,99,4.0,5.0,24,0.00,,,0.00,LWC V2.00 B2112,2013-05-01 20:09:00,
2013-05-01 13:14:00,80.4,42.4,29.97,East,101,1.0,1.0,26,0.00,,,0.00,LWC V2.00 B2112,2013-05-01 20:14:00,
2013-05-01 13:19:00,81.6,35.3,29.97,East,101,2.0,3.0,19,0.00,,,0.00,LWC V2.00 B2112,2013-05-01 20:19:00,
2013-05-01 13:24:00,81.7,36.7,29.97,ENE,57,1.0,1.0,20,0.00,,,0.00,LWC V2.00 B2112,2013-05-01 20:24:00,
2013-05-01 13:29:00,82.0,39.4,29.97,SSW,205,2.0,5.0,22,0.00,,,0.00,LWC V2.00 B2112,2013-05-01 20:29:00,
2013-05-01 13:34:00,81.7,37.9,29.98,SE,130,1.0,6.0,21,0.00,,,0.00,LWC V2.00 B2112,2013-05-01 20:34:00,
2013-05-01 13:39:00,81.5,36.5,29.97,WSW,257,1.0,2.0,20,0.00,,,0.00,LWC V2.00 B2112,2013-05-01 20:39:00,
2013-05-01 13:44:00,82.0,37.0,29.98,NW,326,3.0,4.0,20,0.00,,,0.00,LWC V2.00 B2112,2013-05-01 20:44:00,
2013-05-01 13:49:00,82.3,35.9,29.97,SW,228,0.0,3.0,19,0.00,,,0.00,LWC V2.00 B2112,2013-05-01 20:49:00,
2013-05-01 13:54:00,82.6,36.1,29.97,NNW,343,0.0,4.0,19,0.00,,,0.00,LWC V2.00 B2112,2013-05-01 20:54:00,
2013-05-01 13:59:00,83.0,33.7,29.98,SSW,212,2.0,5.0,17,0.00,,,0.00,LWC V2.00 B2112,2013-05-01 20:59:00,
2013-05-01 14:04:00,81.7,34.1,29.98,East,94,2.0,3.0,18,0.00,,,0.00,LWC V2.00 B2112,2013-05-01 21:04:00,
2013-05-01 14:09:00,79.8,39.8,29.98,South,188,2.0,5.0,24,0.00,,,0.00,LWC V2.00 B2112,2013-05-01 21:09:00,
2013-05-01 14:14:00,78.1,40.4,29.97,ESE,108,1.0,2.0,26,0.00,,,0.00,LWC V2.00 B2112,2013-05-01 21:14:00,
2013-05-01 14:19:00,77.4,41.7,29.98,ESE,114,2.0,5.0,28,0.00,,,0.00,LWC V2.00 B2112,2013-05-01 21:19:00,
2013-05-01 14:24:00,77.0,40.4,29.98,ESE,106,3.0,5.0,27,0.00,,,0.00,LWC V2.00 B2112,2013-05-01 21:24:00,
2013-05-01 14:29:00,76.6,41.0,29.97,East,81,4.0,5.0,28,0.00,,,0.00,LWC V2.00 B2112,2013-05-01 21:29:00,
2013-05-01 14:34:00,76.5,40.0,29.98,SSW,205,3.0,3.0,27,0.00,,,0.00,LWC V2.00 B2112,2013-05-01 21:34:00,
2013-05-01 14:39:00,77.0,40.4,29.98,ESE,103,3.0,3.0,27,0.00,,,0.00,LWC V2.00 B2112,2013-05-01 21:39:00,
2013-05-01 14:44:00,77.1,41.5,29.98,ESE,108,3.0,3.0,28,0.00,,,0.00,LWC V2.00 B2112,2013-05-01 21:44:00,
2013-05-01 14:49:00,77.1,44.1,29.98,East,98,1.0,4.0,31,0.00,,,0.00,LWC V2.00 B2112,2013-05-01 21:49:00,
2013-05-01 14:54:00,77.0,41.4,29.98,East,99,2.0,7.0,28,0.00,,,0.00,LWC V2.00 B2112,2013-05-01 21:54:00,
2013-05-01 14:59:00,76.7,41.1,29.98,ESE,120,3.0,5.0,28,0.00,,,0.00,LWC V2.00 B2112,2013-05-01 21:59:00,
2013-05-01 15:04:00,76.0,41.4,29.97,ESE,115,2.0,3.0,29,0.00,,,0.00,LWC V2.00 B2112,2013-05-01 22:04:00,
2013-05-01 15:09:00,75.9,40.4,29.98,South,183,1.0,1.0,28,0.00,,,0.00,LWC V2.00 B2112,2013-05-01 22:09:00,
2013-05-01 15:14:00,76.2,37.8,29.98,ESE,109,2.0,5.0,25,0.00,,,0.00,LWC V2.00 B2112,2013-05-01 22:14:00,
2013-05-01 15:19:00,76.5,41.0,29.98,SSE,157,3.0,5.0,28,0.00,,,0.00,LWC V2.00 B2112,2013-05-01 22:19:00,
2013-05-01 15:24:00,75.8,40.4,29.98,SE,124,2.0,5.0,28,0.00,,,0.00,LWC V2.00 B2112,2013-05-01 22:24:00,
2013-05-01 15:29:00,75.3,41.7,29.98,SE,143,1.0,5.0,30,0.00,,,0.00,LWC V2.00 B2112,2013-05-01 22:29:00,
2013-05-01 15:34:00,75.4,40.9,29.98,ESE,120,1.0,4.0,29,0.00,,,0.00,LWC V2.00 B2112,2013-05-01 22:34:00,
2013-05-01 15:39:00,74.7,42.0,29.98,East,86,2.0,3.0,31,0.00,,,0.00,LWC V2.00 B2112,2013-05-01 22:39:00,
2013-05-01 15:44:00,74.4,41.8,29.98,SW,222,2.0,6.0,31,0.00,,,0.00,LWC V2.00 B2112,2013-05-01 22:44:00,
2013-05-01 15:49:00,74.2,43.2,29.98,SSW,203,0.0,3.0,33,0.00,,,0.00,LWC V2.00 B2112,2013-05-01 22:49:00,
2013-05-01 15:54:00,74.0,44.6,29.98,ESE,120,1.0,6.0,35,0.00,,,0.00,LWC V2.00 B2112,2013-05-01 22:54:00,
2013-05-01 15:59:00,73.7,45.8,29.98,ESE,123,2.0,4.0,37,0.00,,,0.00,LWC V2.00 B2112,2013-05-01 22:59:00,
2013-05-01 16:04:00,73.4,46.2,29.98,SE,145,2.0,5.0,38,0.00,,,0.00,LWC V2.00 B2112,2013-05-01 23:04:00,
2013-05-01 16:09:00,72.9,45.8,29.99,ESE,103,6.0,8.0,38,0.00,,,0.00,LWC V2.00 B2112,2013-05-01 23:09:00,
2013-05-01 16:14:00,72.5,48.1,29.99,East,96,5.0,5.0,42,0.00,,,0.00,LWC V2.00 B2112,2013-05-01 23:14:00,
2013-05-01 16:19:00,72.1,47.1,29.99,ESE,122,2.0,3.0,41,0.00,,,0.00,LWC V2.00 B2112,2013-05-01 23:19:00,
2013-05-01 16:24:00,72.0,47.6,29.99,SW,214,3.0,5.0,42,0.00,,,0.00,LWC V2.00 B2112,2013-05-01 23:24:00,
2013-05-01 16:29:00,71.8,48.1,29.99,East,94,6.0,6.0,43,0.00,,,0.00,LWC V2.00 B2112,2013-05-01 23:29:00,
2013-05-01 16:34:00,71.6,46.6,29.99,ESE,106,3.0,3.0,41,0.00,,,0.00,LWC V2.00 B2112,2013-05-01 23:34:00,
2013-05-01 16:39:00,71.5,45.9,29.99,SSE,147,2.0,4.0,40,0.00,,,0.00,LWC V2.00 B2112,2013-05-01 23:39:00,
2013-05-01 16:44:00,71.2,46.3,29.99,ESE,120,0.0,3.0,41,0.00,,,0.00,LWC V2.00 B2112,2013-05-01 23:44:00,
2013-05-01 16:49:00,71.0,46.1,29.99,East,101,0.0,1.0,41,0.00,,,0.00,LWC V2.00 B2112,2013-05-01 23:49:00,
2013-05-01 16:54:00,70.8,46.6,29.99,SSE,152,0.0,3.0,42,0.00,,,0.00,LWC V2.00 B2112,2013-05-01 23:54:00,
2013-05-01 16:59:00,70.5,47.5,29.99,East,89,1.0,4.0,44,0.00,,,0.00,LWC V2.00 B2112,2013-05-01 23:59:00,
2013-05-01 17:04:00,70.2,48.4,29.99,SSE,155,2.0,5.0,46,0.00,,,0.00,LWC V2.00 B2112,2013-05-02 00:04:00,
2013-05-01 17:09:00,69.7,47.4,29.99,ESE,105,1.0,3.0,45,0.00,,,0.00,LWC V2.00 B2112,2013-05-02 00:09:00,
2013-05-01 17:14:00,69.3,48.8,29.99,SW,219,0.0,2.0,48,0.00,,,0.00,LWC V2.00 B2112,2013-05-02 00:14:00,
2013-05-01 17:19:00,68.9,48.9,29.99,SW,226,1.0,4.0,49,0.00,,,0.00,LWC V2.00 B2112,2013-05-02 00:19:00,
2013-05-01 17:24:00,68.5,50.2,29.99,SSE,155,2.0,4.0,52,0.00,,,0.00,LWC V2.00 B2112,2013-05-02 00:24:00,
2013-05-01 17:29:00,68.1,50.3,29.99,SSE,162,1.0,2.0,53,0.00,,,0.00,LWC V2.00 B2112,2013-05-02 00:29:00,
2013-05-01 17:34:00,67.7,50.4,29.99,East,81,2.0,3.0,54,0.00,,,0.00,LWC V2.00 B2112,2013-05-02 00:34:00,
2013-05-01 17:39:00,67.1,50.4,29.99,SSE,159,0.0,4.0,55,0.00,,,0.00,LWC V2.00 B2112,2013-05-02 00:39:00,
2013-05-01 17:44:00,66.7,51.0,30.00,SW,215,1.0,1.0,57,0.00,,,0.00,LWC V2.00 B2112,2013-05-02 00:44:00,
2013-05-01 17:49:00,66.3,50.6,30.00,SSW,208,1.0,3.0,57,0.00,,,0.00,LWC V2.00 B2112,2013-05-02 00:49:00,
2013-05-01 17:54:00,66.0,50.3,30.00,ENE,74,1.0,2.0,57,0.00,,,0.00,LWC V2.00 B2112,2013-05-02 00:54:00,
2013-05-01 17:59:00,65.9,50.7,30.00,SW,233,1.0,3.0,58,0.00,,,0.00,LWC V2.00 B2112,2013-05-02 00:59:00,
2013-05-01 18:04:00,65.6,51.3,30.00,SE,143,0.0,1.0,60,0.00,,,0.00,LWC V2.00 B2112,2013-05-02 01:04:00,
2013-05-01 18:09:00,65.4,51.1,30.00,East,101,1.0,2.0,60,0.00,,,0.00,LWC V2.00 B2112,2013-05-02 01:09:00,
2013-05-01 18:14:00,65.1,50.9,30.00,SSE,155,0.0,1.0,60,0.00,,,0.00,LWC V2.00 B2112,2013-05-02 01:14:00,
2013-05-01 18:19:00,64.8,50.1,30.00,SE,134,1.0,4.0,59,0.00,,,0.00,LWC V2.00 B2112,2013-05-02 01:19:00,
2013-05-01 18:24:00,64.6,49.9,30.00,SSE,159,1.0,1.0,59,0.00,,,0.00,LWC V2.00 B2112,2013-05-02 01:24:00,
2013-05-01 18:29:00,64.4,48.4,30.00,SSE,148,0.0,1.0,56,0.00,,,0.00,LWC V2.00 B2112,2013-05-02 01:29:00,
2013-05-01 18:34:00,64.3,48.3,30.00,ESE,110,0.0,1.0,56,0.00,,,0.00,LWC V2.00 B2112,2013-05-02 01:34:00,
2013-05-01 18:39:00,64.2,47.7,30.00,SE,131,0.0,0.0,55,0.00,,,0.00,LWC V2.00 B2112,2013-05-02 01:39:00,
2013-05-01 18:44:00,63.9,48.4,30.00,SE,133,0.0,0.0,57,0.00,,,0.00,LWC V2.00 B2112,2013-05-02 01:44:00,
2013-05-01 18:49:00,63.7,50.0,30.00,SE,133,0.0,0.0,61,0.00,,,0.00,LWC V2.00 B2112,2013-05-02 01:49:00,
2013-05-01 18:54:00,63.2,49.1,30.00,SE,133,0.0,0.0,60,0.00,,,0.00,LWC V2.00 B2112,2013-05-02 01:54:00,
2013-05-01 18:59:00,62.8,50.0,30.00,SE,133,0.0,0.0,63,0.00,,,0.00,LWC V2.00 B2112,2013-05-02 01:59:00,
2013-05-01 19:04:00,62.3,50.0,30.00,SSE,153,0.0,0.0,64,0.00,,,0.00,LWC V2.00 B2112,2013-05-02 02:04:00,
2013-05-01 19:09:00,62.0,49.7,30.00,SSE,153,0.0,0.0,64,0.00,,,0.00,LWC V2.00 B2112,2013-05-02 02:09:00,
2013-05-01 19:14:00,61.6,49.3,30.01,SSE,153,0.0,0.0,64,0.00,,,0.00,LWC V2.00 B2112,2013-05-02 02:14:00,
2013-05-01 19:19:00,61.2,48.9,30.01,SSE,153,0.0,0.0,64,0.00,,,0.00,LWC V2.00 B2112,2013-05-02 02:19:00,
2013-05-01 19:24:00,60.8,49.0,30.01,SSE,154,0.0,0.0,65,0.00,,,0.00,LWC V2.00 B2112,2013-05-02 02:24:00,
2013-05-01 19:29:00,60.3,47.6,30.01,SSE,153,0.0,0.0,63,0.00,,,0.00,LWC V2.00 B2112,2013-05-02 02:29:00,
2013-05-01 19:34:00,59.9,47.7,30.01,SSE,153,0.0,0.0,64,0.00,,,0.00,LWC V2.00 B2112,2013-05-02 02:34:00,
2013-05-01 19:39:00,59.5,48.1,30.01,SSE,155,0.0,0.0,66,0.00,,,0.00,LWC V2.00 B2112,2013-05-02 02:39:00,
2013-05-01 19:44:00,59.1,48.2,30.01,SSE,155,0.0,0.0,67,0.00,,,0.00,LWC V2.00 B2112,2013-05-02 02:44:00,
2013-05-01 19:49:00,58.6,47.3,30.02,SSE,155,0.0,0.0,66,0.00,,,0.00,LWC V2.00 B2112,2013-05-02 02:49:00,
2013-05-01 19:54:00,58.0,47.1,30.02,SSE,155,0.0,0.0,67,0.00,,,0.00,LWC V2.00 B2112,2013-05-02 02:54:00,
2013-05-01 19:59:00,57.4,46.5,30.02,SSE,155,0.0,0.0,67,0.00,,,0.00,LWC V2.00 B2112,2013-05-02 02:59:00,
2013-05-01 20:04:00,56.8,46.0,30.02,SSE,155,0.0,0.0,67,0.00,,,0.00,LWC V2.00 B2112,2013-05-02 03:04:00,
2013-05-01 20:09:00,56.3,45.9,30.02,SSE,155,0.0,0.0,68,0.00,,,0.00,LWC V2.00 B2112,2013-05-02 03:09:00,
2013-05-01 20:14:00,55.7,45.3,30.02,SSE,155,0.0,0.0,68,0.00,,,0.00,LWC V2.00 B2112,2013-05-02 03:14:00,
2013-05-01 20:19:00,55.2,45.2,30.03,SSE,155,0.0,0.0,69,0.00,,,0.00,LWC V2.00 B2112,2013-05-02 03:19:00,
2013-05-01 20:24:00,54.7,44.3,30.03,SSE,155,0.0,0.0,68,0.00,,,0.00,LWC V2.00 B2112,2013-05-02 03:24:00,
2013-05-01 20:29:00,54.2,43.9,30.03,SSE,155,0.0,0.0,68,0.00,,,0.00,LWC V2.00 B2112,2013-05-02 03:29:00,
2013-05-01 20:34:00,53.8,44.2,30.03,SSE,155,0.0,0.0,70,0.00,,,0.00,LWC V2.00 B2112,2013-05-02 03:34:00,
2013-05-01 20:39:00,53.4,44.2,30.03,SSE,155,0.0,0.0,71,0.00,,,0.00,LWC V2.00 B2112,2013-05-02 03:39:00,
2013-05-01 20:44:00,53.0,44.2,30.03,SSE,155,0.0,0.0,72,0.00,,,0.00,LWC V2.00 B2112,2013-05-02 03:44:00,
2013-05-01 20:49:00,52.7,44.3,30.04,SSE,155,0.0,0.0,73,0.00,,,0.00,LWC V2.00 B2112,2013-05-02 03:49:00,
2013-05-01 20:54:00,52.2,43.8,30.04,SSE,155,0.0,0.0,73,0.00,,,0.00,LWC V2.00 B2112,2013-05-02 03:54:00,
2013-05-01 20:59:00,52.0,44.0,30.04,SSE,155,0.0,0.0,74,0.00,,,0.00,LWC V2.00 B2112,2013-05-02 03:59:00,
2013-05-01 21:01:00,51.9,43.9,30.04,SSE,155,0.0,0.0,74,0.00,,,0.00,LWC V2.00 B2112,2013-05-02 04:01:00,
2013-05-01 21:06:00,51.5,43.5,30.05,SSE,155,0.0,0.0,74,0.00,,,0.00,LWC V2.00 B2112,2013-05-02 04:06:00,
2013-05-01 21:11:00,51.2,43.6,30.05,SSE,155,0.0,0.0,75,0.00,,,0.00,LWC V2.00 B2112,2013-05-02 04:11:00,
2013-05-01 21:16:00,50.8,43.2,30.05,SSE,155,0.0,0.0,75,0.00,,,0.00,LWC V2.00 B2112,2013-05-02 04:16:00,
2013-05-01 21:21:00,50.5,42.9,30.05,SSE,155,0.0,0.0,75,0.00,,,0.00,LWC V2.00 B2112,2013-05-02 04:21:00,
2013-05-01 21:26:00,50.4,43.5,30.05,SSE,155,0.0,0.0,77,0.00,,,0.00,LWC V2.00 B2112,2013-05-02 04:26:00,
2013-05-01 21:31:00,50.1,43.2,30.05,SSE,155,0.0,0.0,77,0.00,,,0.00,LWC V2.00 B2112,2013-05-02 04:31:00,
2013-05-01 21:36:00,49.8,42.9,30.05,SSE,155,0.0,0.0,77,0.00,,,0.00,LWC V2.00 B2112,2013-05-02 04:36:00,
2013-05-01 21:41:00,49.6,42.7,30.05,SSE,155,0.0,0.0,77,0.00,,,0.00,LWC V2.00 B2112,2013-05-02 04:41:00,
2013-05-01 21:46:00,49.4,42.8,30.05,SSE,155,0.0,0.0,78,0.00,,,0.00,LWC V2.00 B2112,2013-05-02 04:46:00,
2013-05-01 21:51:00,49.3,43.1,30.05,SSE,155,0.0,0.0,79,0.00,,,0.00,LWC V2.00 B2112,2013-05-02 04:51:00,
2013-05-01 21:56:00,49.1,43.2,30.05,SSE,155,0.0,0.0,80,0.00,,,0.00,LWC V2.00 B2112,2013-05-02 04:56:00,
2013-05-01 22:01:00,48.9,43.0,30.05,SSE,155,0.0,0.0,80,0.00,,,0.00,LWC V2.00 B2112,2013-05-02 05:01:00,
2013-05-01 22:06:00,48.8,43.2,30.06,SSE,155,0.0,0.0,81,0.00,,,0.00,LWC V2.00 B2112,2013-05-02 05:06:00,
2013-05-01 22:11:00,48.6,43.0,30.06,SSE,155,0.0,0.0,81,0.00,,,0.00,LWC V2.00 B2112,2013-05-02 05:11:00,
2013-05-01 22:16:00,48.5,43.3,30.06,SSE,155,0.0,0.0,82,0.00,,,0.00,LWC V2.00 B2112,2013-05-02 05:16:00,
2013-05-01 22:21:00,48.2,43.0,30.06,SSE,155,0.0,0.0,82,0.00,,,0.00,LWC V2.00 B2112,2013-05-02 05:21:00,
2013-05-01 22:26:00,48.1,43.2,30.06,SSE,155,0.0,0.0,83,0.00,,,0.00,LWC V2.00 B2112,2013-05-02 05:26:00,
2013-05-01 22:31:00,47.8,42.9,30.06,SSE,155,0.0,0.0,83,0.00,,,0.00,LWC V2.00 B2112,2013-05-02 05:31:00,
2013-05-01 22:36:00,47.6,42.7,30.06,SSE,155,0.0,0.0,83,0.00,,,0.00,LWC V2.00 B2112,2013-05-02 05:36:00,
2013-05-01 22:41:00,47.3,42.4,30.06,SSE,155,0.0,0.0,83,0.00,,,0.00,LWC V2.00 B2112,2013-05-02 05:41:00,
2013-05-01 22:46:00,47.1,42.5,30.06,SSE,155,0.0,0.0,84,0.00,,,0.00,LWC V2.00 B2112,2013-05-02 05:46:00,
2013-05-01 22:51:00,47.0,42.4,30.06,SSE,155,0.0,0.0,84,0.00,,,0.00,LWC V2.00 B2112,2013-05-02 05:51:00,
2013-05-01 22:56:00,46.8,42.5,30.06,SSE,155,0.0,0.0,85,0.00,,,0.00,LWC V2.00 B2112,2013-05-02 05:56:00,
2013-05-01 23:01:00,46.7,42.4,30.06,SSE,155,0.0,0.0,85,0.00,,,0.00,LWC V2.00 B2112,2013-05-02 06:01:00,
2013-05-01 23:06:00,46.6,42.6,30.06,SSE,155,0.0,0.0,86,0.00,,,0.00,LWC V2.00 B2112,2013-05-02 06:06:00,
2013-05-01 23:11:00,46.4,42.4,30.06,SSE,155,0.0,0.0,86,0.00,,,0.00,LWC V2.00 B2112,2013-05-02 06:11:00,
2013-05-01 23:16:00,46.3,42.3,30.06,SSE,155,0.0,0.0,86,0.00,,,0.00,LWC V2.00 B2112,2013-05-02 06:16:00,
2013-05-01 23:21:00,46.2,42.2,30.06,SSE,155,0.0,0.0,86,0.00,,,0.00,LWC V2.00 B2112,2013-05-02 06:21:00,
2013-05-01 23:26:00,46.1,42.1,30.05,SSE,155,0.0,0.0,86,0.00,,,0.00,LWC V2.00 B2112,2013-05-02 06:26:00,
2013-05-01 23:31:00,46.0,42.0,30.06,SSE,155,0.0,0.0,86,0.00,,,0.00,LWC V2.00 B2112,2013-05-02 06:31:00,
2013-05-01 23:36:00,45.8,41.9,30.06,SSE,155,0.0,0.0,86,0.00,,,0.00,LWC V2.00 B2112,2013-05-02 06:36:00,
2013-05-01 23:41:00,45.6,42.0,30.06,SSE,155,0.0,0.0,87,0.00,,,0.00,LWC V2.00 B2112,2013-05-02 06:41:00,
2013-05-01 23:46:00,45.5,41.9,30.06,SSE,155,0.0,0.0,87,0.00,,,0.00,LWC V2.00 B2112,2013-05-02 06:46:00,
2013-05-01 23:51:00,45.3,41.7,30.06,SSE,155,0.0,0.0,87,0.00,,,0.00,LWC V2.00 B2112,2013-05-02 06:51:00,
2013-05-01 23:56:00,45.2,41.6,30.06,SSE,155,0.0,0.0,87,0.00,,,0.00,LWC V2.00 B2112,2013-05-02 06:56:00,